Regional Weather Roundup
Issued by NWS Kansas City/Pleasant Hill, MO

Home | Current Version | Previous Version | Graphics & Text | Print | Product List | Glossary Off
Versions: 1 2 3 4 5 6 7 8 9 10 11 12 13 14 15 16 17 18 19 20 21 22 23 24 25 26 27 28 29 30 31 32 33 34 35 36 37 38 39 40 41 42 43 44 45 46 47 48 49 50

000
ASUS43 KEAX 250311
RWREAX

WEATHER ROUNDUP FOR EASTERN KANSAS AND NORTHWEST MISSOURI
NATIONAL WEATHER SERVICE KANSAS CITY/PLEASANT HILL MO
1000 PM CDT SUN MAY 24 2015

KSZ040-057-103>105-MOZ028-029-037-043-250400-
...KANSAS CITY METROPOLITAN AREA...

CITY           SKY/WX    TMP DP  RH WIND       PRES   REMARKS
K.C. INTL      CLOUDY    62  61  96 S6        29.82R
K.C. DOWNTOWN  CLOUDY    65  61  87 S5        29.81R
LEES SUMMIT    CLOUDY    65  62  90 S5        29.83S
OLATHE - IXD   CLOUDY    64  62  93 S7        29.83S
OLATHE - OJC   CLOUDY    63  62  97 S5        29.82F
LAWRENCE       CLOUDY    64  61  90 S3        29.82R

$$

MOZ001>008-011>017-020>025-030>033-038>040-044>046-053-054-250400-
...NORTHERN AND CENTRAL MISSOURI...

CITY           SKY/WX    TMP DP  RH WIND       PRES   REMARKS
ST. JOSEPH     CLOUDY    65  62  90 S3        29.82R
MOSBY            N/A     64  63  94 SE3       29.82S
WARRENSBURG    RAIN      64  63  94 SE6       29.83F
WHITEMAN AFB   LGT RAIN  64  64 100 S2        29.83S
CLINTON        CLOUDY    64  64 100 CALM      29.85R
SEDALIA        LGT RAIN  66  64  93 SE5       29.85S
WARSAW         NOT AVBL
CHILLICOTHE      N/A     65  63  93 CALM      29.84R
KIRKSVILLE     LGT RAIN  65  64  97 S6        29.84S

$$

MOZ041-047>049-056>058-063>065-088>090-097-250400-
...EASTERN AND SOUTHERN MISSOURI...

CITY           SKY/WX    TMP DP  RH WIND       PRES   REMARKS
ST. LOUIS INTL HVY RAIN  72  64  78 S12G21    29.92R
SPIRIT OF STL  RAIN      70  67  90 S8G21     29.88S FOG
COLUMBIA       LGT RAIN  68  66  93 E3        29.83F
JEFFERSON CITY CLOUDY    68  67  96 SE3       29.83F
ROLLA          CLOUDY    67  65  93 S12       29.85R
OSAGE BEACH    CLOUDY    66  63  88 E6        29.82F
SPRINGFIELD    CLOUDY    63  61  93 SE5       29.85S
BRANSON        CLOUDY    63  63 100 CALM      29.91R
JOPLIN         HVY RAIN  62  61  96 W10       29.88R VSB 1
WEST PLAINS    CLOUDY    67  64  90 S14G22    29.93R

$$

IAZ060-094-KSZ022-034>040-054-083-096-NEZ052-066-093-250400-
...KANSAS...SOUTHEAST NEBRASKA AND IOWA...

CITY           SKY/WX    TMP DP  RH WIND       PRES   REMARKS
TOPEKA         CLOUDY    64  62  93 CALM      29.82R
MANHATTAN      CLOUDY    65  61  87 S7        29.80S
EMPORIA        CLOUDY    62  60  93 S8        29.83R
CHANUTE        LGT RAIN  62  61  96 CALM      29.87S
WICHITA        CLOUDY    61  59  93 SW8       29.84R
OMAHA          CLOUDY    68  61  78 SW5       29.77R
LINCOLN        CLOUDY    64  61  90 CALM      29.79R
FALLS CITY     CLOUDY    64  61  90 S5        29.78F
LAMONI         CLOUDY    66  62  87 S5        29.81S
DES MOINES     CLOUDY    68  63  84 SW8       29.79R

$$



USA.gov is the U.S. government's official web portal to all federal, state and local government web resources and services.